Terminal Aerodrome Forecast
Issued by NWS Mt. Holly, NJ

Home | Current Version | Previous Version | Text Only | Print | Product List | Glossary On
Versions: 1 2 3 4 5 6 7 8 9 10 11 12 13 14 15 16 17 18 19 20 21 22 23 24 25 26 27 28 29 30 31 32
000
FTUS41 KPHI 040202 AAB
TAFTTN
TAF AMD
KTTN 040202Z 0402/0424 18008KT 4SM -FZRA OVC005 WS020/21040KT
     FM040400 20008KT 3SM -RA BR OVC005 WS015/23050KT
     FM040800 23008KT 3SM -RA BR OVC005 WS020/25040KT
     FM041100 31006KT 2SM -RA BR OVC007
      TEMPO 0411/0415 3/4SM BR OVC004
     FM042300 36005KT 5SM -RA BR OVC007=

USA.gov is the U.S. government's official web portal to all federal, state and local government web resources and services.